{"data":{"norad_id":67186,"intl_designator":"2025-303Z","name":"STARLINK-35857","alt_names":[],"object_type":"PAYLOAD","status":"ACTIVE","operator":null,"country":"US","launch_date":"2025-12-17","launch_site_code":"AFETR","launch_vehicle":null,"mission":null,"orbit_class":"UNKNOWN","rcs_meters":null,"size_class":null,"mass_kg":null,"dimensions":null,"purposes":["comms"],"wikipedia_slug":null,"has_3d_model":false,"image_url":null,"decayed_at":null,"tle_current":{"epoch":"2026-05-24T15:33:59.091840Z","epoch_age_seconds":112665,"freshness":"FRESH","line1":"1 67186U 25303Z   26144.64860060  .00023006  00000+0  84281-3 0  9994","line2":"2 67186  43.0008 241.6022 0001790 269.7889  90.2758 15.27584860 24359","mean_motion":15.2758486,"eccentricity":0.000179,"inclination_deg":43.0008,"raan_deg":241.6022,"arg_perigee_deg":269.7889,"mean_anomaly_deg":90.2758,"bstar":0.00084281,"rev_number":2435,"period_min":94.266448804684,"perigee_km":481.80639378358,"apogee_km":484.26269319614,"semimajor_km":6861.1715434899,"source":"CELESTRAK","updated_at":"2026-05-25T13:38:21.484715Z"}}}